RH
29 23 21 23 22 21 21 26 26 29 21 13 12 18 15 13 61 72 58 56 35 34 30 27 26 23 34 46 42 39 29 18 17 17 22 23 21 18 14 13 11 9 7 6 5
31 23 19 14 9 7 8 8 11 21 22 18 14 13 24 10 25 82 69 75 48 35 31 29 26 27 19 20 29 40 28 21 24 24 27 22 22 18 15 13 12 9 7 5 6
28 23 13 8 7 8 10 12 12 14 20 22 21 16 23 30 12 56 90 91 65 50 47 33 30 26 26 21 15 15 19 26 31 32 34 26 23 20 17 14 12 9 7 8 8
23 16 8 8 10 15 22 27 25 18 18 28 28 21 22 28 13 25 95 98 88 76 66 36 32 24 23 20 16 14 11 11 17 27 31 32 22 18 17 15 12 10 7 8 9
22 10 8 14 26 31 24 16 16 20 19 21 37 30 33 31 22 22 59 99 97 96 89 39 31 28 23 22 23 17 15 13 16 13 11 15 19 19 16 14 12 9 8 7 9
13 9 16 36 57 38 20 49 57 25 14 18 43 42 38 27 41 43 29 94 98 96 98 45 33 29 30 23 22 21 18 19 19 16 11 9 10 10 13 13 12 10 9 9 8
10 15 38 63 63 35 67 100 100 63 23 19 44 54 42 28 54 85 19 85 99 88 89 69 42 32 30 28 22 19 20 21 19 17 13 10 9 6 15 14 12 13 12 10 9
11 34 64 78 65 50 85 91 100 97 34 21 48 62 37 39 50 99 23 70 100 98 92 51 47 36 31 29 25 19 19 21 22 18 15 13 9 9 13 14 16 14 12 9 8
25 58 73 89 76 68 72 99 85 91 57 26 59 57 45 48 64 89 25 71 100 95 98 88 59 41 32 29 27 22 16 17 23 24 18 13 9 12 13 14 15 14 12 9 8
36 77 81 100 98 74 66 83 74 89 37 23 62 54 47 51 74 70 24 50 99 96 99 97 96 47 35 28 24 22 19 18 19 22 22 15 8 12 14 14 13 13 15 14 12
27 82 95 100 100 100 76 71 66 66 36 35 60 45 50 53 89 79 31 48 95 98 99 100 95 61 33 30 26 25 23 21 18 16 17 17 11 13 15 15 15 14 14 13 11
29 99 100 99 97 80 84 87 85 59 25 47 62 52 40 53 100 79 33 54 93 98 99 95 75 73 56 37 31 26 23 22 21 18 14 14 13 15 15 14 14 14 13 12 10
68 100 100 97 100 76 92 85 64 37 37 60 57 45 38 100 79 32 40 35 74 100 98 99 99 99 100 57 37 31 28 26 24 20 16 14 11 12 12 11 10 9 9 9 8
76 100 97 93 100 100 85 71 50 22 56 58 48 57 52 51 100 74 63 58 70 100 99 95 96 99 100 99 89 73 37 29 25 22 18 16 12 16 15 13 10 9 8 7 6
39 72 91 84 80 98 70 46 20 46 56 53 45 69 100 98 65 73 67 62 69 96 98 88 94 97 90 100 100 97 100 64 44 26 18 16 14 18 14 12 11 10 9 8 8
8 9 25 42 47 35 24 20 40 58 77 47 59 100 100 72 80 82 66 68 80 99 99 97 98 99 90 84 92 97 100 99 84 56 29 21 15 16 14 13 13 14 13 12 11
29 28 11 13 12 16 23 73 100 85 44 36 76 95 100 97 55 86 58 63 66 88 90 75 87 93 81 55 44 38 57 58 27 19 17 20 18 18 18 17 16 16 14 13 12
19 78 99 24 29 91 100 100 83 38 37 58 100 88 80 93 76 66 57 53 64 78 89 56 58 76 88 70 48 40 30 25 24 22 23 26 24 22 19 17 16 15 14 13 12
36 18 46 53 82 87 99 91 47 87 44 50 64 94 100 98 73 66 71 57 67 98 93 70 57 94 90 54 45 38 30 33 32 30 29 23 21 20 20 17 14 13 11 11 10
32 33 27 41 64 62 68 66 86 100 100 90 70 66 70 89 87 73 67 57 69 96 94 81 74 84 67 45 40 43 45 37 32 27 23 22 22 22 18 15 12 10 11 12 11
37 59 44 34 31 31 36 54 68 76 59 62 61 89 98 94 76 96 85 88 91 75 65 57 59 62 59 56 58 51 41 32 25 21 23 28 26 22 18 14 14 13 13 13 15
55 46 46 48 48 39 41 25 26 30 34 36 59 95 100 78 77 97 91 72 93 65 50 53 53 52 54 49 39 32 27 25 29 28 28 28 23 19 16 15 14 15 19 22 24
54 48 35 43 45 47 38 39 23 31 39 80 92 84 70 67 74 89 99 62 48 54 50 46 47 43 39 32 29 30 32 32 29 30 28 22 20 18 15 21 23 27 31 28 21
26 45 49 50 35 42 60 42 45 57 66 75 75 72 71 87 96 100 54 55 61 48 43 40 38 35 30 30 31 33 34 37 34 27 21 19 20 16 30 45 42 32 29 26 25
21 32 33 68 35 31 51 64 71 75 72 69 73 77 85 92 96 76 38 39 36 36 39 35 32 29 29 32 37 38 37 35 28 22 19 22 42 56 63 54 48 42 34 37 31
21 25 25 28 34 36 51 58 59 58 60 70 71 83 82 88 92 62 31 31 34 33 33 30 29 29 32 39 44 42 34 28 21 16 31 63 76 68 58 49 47 43 43 37 28
20 20 21 21 24 34 31 22 32 36 42 48 70 71 69 74 84 76 47 30 30 27 26 26 28 34 43 48 48 38 30 23 22 30 68 80 70 72 56 57 48 52 45 36 33
Wind_Speed
52 53 52 49 49 51 51 48 49 51 50 47 42 44 44 42 43 44 51 51 56 55 52 50 48 49 54 54 52 52 51 47 43 41 37 38 42 44 42 37 34 36 34 32 33
57 58 58 59 62 64 65 62 62 60 57 52 50 45 47 45 44 40 44 54 54 54 54 50 49 48 46 51 53 54 51 46 42 40 41 42 44 45 43 38 36 37 33 32 31
62 63 64 68 73 72 68 62 66 68 67 60 55 51 47 45 43 38 48 50 55 53 52 54 52 51 48 45 47 48 50 47 45 45 44 43 47 46 43 40 37 37 33 31 29
65 69 73 79 75 68 65 63 59 64 70 66 59 57 53 51 45 44 47 45 52 50 51 54 54 51 49 47 45 45 42 44 44 48 47 45 47 48 45 38 39 38 37 33 29
71 74 80 73 64 62 55 49 42 50 61 66 61 58 56 52 44 42 46 47 47 50 53 53 54 52 49 47 45 43 42 41 38 41 44 45 48 48 45 42 41 39 37 36 33
74 80 71 59 55 52 44 29 25 33 45 59 61 59 56 52 45 40 43 42 42 39 49 51 52 52 50 47 46 46 44 40 36 35 38 42 45 48 43 43 40 37 36 37 37
79 75 59 46 49 41 22 17 22 22 34 53 61 58 56 52 45 41 41 39 38 36 40 48 47 50 51 48 47 48 47 44 38 35 37 41 42 43 42 42 42 40 38 40 40
80 66 48 42 38 28 17 15 17 14 24 46 58 55 54 47 43 33 35 43 38 39 41 42 44 47 49 49 48 48 48 46 40 37 37 41 40 44 46 44 41 42 39 40 40
76 55 40 38 30 19 19 17 19 20 18 42 54 53 52 44 35 37 36 40 32 38 40 41 44 46 47 49 48 49 47 45 42 41 39 41 40 44 44 45 42 42 40 38 36
68 46 34 32 30 22 19 19 19 19 18 43 52 53 48 44 42 31 34 37 30 41 37 37 40 45 46 48 49 48 47 42 41 43 42 41 42 40 41 42 43 43 42 42 42
55 36 28 29 31 26 18 17 19 17 23 48 50 49 44 44 34 34 35 37 29 36 33 36 35 36 44 44 44 45 46 44 42 42 44 43 44 39 40 41 42 44 44 45 45
43 28 27 29 26 21 16 16 16 11 34 49 47 45 45 41 42 39 36 36 30 28 30 28 31 31 38 43 42 43 43 41 40 40 41 41 43 39 37 41 43 45 45 46 45
34 27 27 22 23 19 12 16 10 8 46 46 44 43 45 26 27 30 34 35 28 34 35 39 32 28 23 34 38 39 38 37 37 39 42 41 42 38 34 38 41 42 43 45 45
36 28 23 11 19 14 15 10 1 34 47 45 44 41 38 34 32 26 31 32 27 26 32 33 36 19 22 25 25 28 38 36 37 39 41 40 41 33 35 39 38 39 40 41 41
39 26 20 13 8 7 7 7 32 45 47 48 47 45 30 39 32 30 31 30 27 21 29 28 28 35 33 31 25 28 27 30 30 33 38 36 41 26 34 36 35 35 37 38 38
45 34 21 14 9 8 22 39 45 39 33 45 46 36 24 35 33 29 33 31 30 31 30 26 25 35 30 26 30 29 25 21 22 27 31 28 33 22 28 30 29 28 29 31 33
55 52 42 34 37 44 47 49 26 28 43 40 37 20 29 30 32 29 29 30 28 28 31 26 22 26 30 26 24 23 28 27 23 24 26 23 24 23 22 24 23 23 25 29 33
45 46 45 43 52 51 26 20 28 41 40 42 30 31 31 25 24 26 25 27 25 23 22 21 24 22 25 29 25 22 24 24 25 23 21 16 21 18 15 19 22 25 28 31 32
44 39 35 32 41 29 29 40 42 35 31 30 27 22 27 25 22 23 23 24 23 23 26 20 21 23 21 22 25 25 24 21 20 21 20 17 17 15 14 19 23 25 27 29 30
35 39 33 20 23 24 21 29 29 30 31 30 23 26 24 21 21 21 23 22 24 20 22 24 21 20 20 19 22 22 20 20 19 20 17 14 13 15 18 20 21 23 25 28 32
29 25 27 22 15 16 13 17 19 22 20 18 18 16 15 14 17 17 16 19 20 16 17 18 18 18 19 18 20 21 20 21 19 16 13 12 14 17 21 22 23 24 27 30 30
29 20 16 16 11 13 15 15 19 22 15 14 16 14 13 15 18 16 19 15 15 15 14 15 16 18 19 19 20 18 16 14 14 13 12 13 15 18 20 22 24 24 25 27 27
23 23 20 15 16 16 13 12 17 15 14 16 11 10 13 17 19 20 18 16 15 13 14 15 16 17 17 17 16 15 15 14 13 13 12 13 17 18 20 20 22 20 21 23 23
12 18 19 17 13 13 15 19 16 12 13 9 6 6 9 11 11 19 16 15 13 15 16 17 16 15 14 13 13 13 13 13 13 14 13 16 16 21 18 16 17 16 18 17 19
9 9 11 15 13 11 11 9 8 7 6 6 7 7 7 10 17 14 13 16 16 15 16 14 13 13 13 13 13 13 13 14 14 15 12 16 14 16 15 14 16 14 14 17 19
1 3 5 2 6 8 8 7 9 10 7 4 4 5 6 9 23 16 13 15 16 16 15 14 13 13 13 12 12 13 14 13 14 14 13 11 15 12 13 16 13 12 14 12 19
6 3 6 5 8 3 3 2 2 3 4 5 4 3 6 8 19 17 11 11 14 14 14 14 13 12 12 12 13 14 14 13 14 13 11 11 12 15 16 13 12 11 10 14 19
Wind_Direction
319 315 311 305 299 292 283 272 264 261 257 253 252 247 240 240 237 232 224 223 224 225 223 223 222 220 223 225 226 228 227 226 222 221 220 224 233 238 239 241 241 246 245 242 242
318 314 312 307 302 297 290 279 264 251 249 247 244 243 239 234 234 232 225 223 223 223 224 224 223 222 221 224 226 228 229 228 227 224 223 223 232 238 239 240 243 244 243 241 240
317 314 311 308 307 305 296 278 260 249 243 239 237 237 235 236 229 223 223 223 222 222 225 223 222 222 221 222 224 229 232 232 231 230 228 223 230 237 240 241 242 244 239 238 234
317 315 313 312 312 306 292 282 265 250 240 234 229 230 229 228 226 219 224 223 221 221 224 223 223 223 223 224 225 228 228 232 232 233 233 229 231 237 241 240 240 240 240 237 235
318 316 317 316 313 307 301 291 273 247 236 230 223 222 224 222 218 221 221 223 219 220 222 223 222 222 222 224 227 227 228 231 232 233 233 232 234 237 239 239 240 239 239 239 235
319 318 321 318 315 316 304 290 274 247 232 221 218 215 218 218 213 223 217 223 216 219 215 218 220 222 223 223 224 226 229 231 231 232 232 230 228 235 234 236 239 239 239 241 240
321 324 323 313 320 323 318 303 288 259 231 210 211 210 211 211 206 215 213 218 215 210 215 216 216 219 222 222 222 225 228 229 229 228 228 229 226 232 225 233 237 239 240 241 242
324 327 320 320 324 331 328 324 335 307 242 206 204 204 205 204 205 213 209 216 213 207 204 210 213 216 220 222 222 226 228 229 229 229 226 227 221 225 225 230 238 242 240 245 248
327 324 318 323 326 316 315 332 338 308 235 199 195 197 198 194 195 205 205 212 210 202 206 205 213 214 216 221 222 224 228 230 231 232 229 229 224 224 226 229 235 244 248 248 252
327 320 316 322 325 303 304 306 320 319 213 188 187 191 188 187 195 200 199 207 205 198 204 205 209 213 214 219 223 226 229 231 231 232 232 230 228 224 231 235 237 241 248 253 252
328 324 315 325 322 309 298 305 308 312 194 176 181 186 177 183 186 201 193 197 208 199 202 204 207 211 217 219 222 224 227 231 232 233 233 232 236 231 239 241 243 247 249 250 253
333 329 316 328 333 322 302 302 306 301 176 170 172 173 171 175 191 194 190 191 206 193 184 203 208 207 209 217 219 223 227 231 234 238 239 237 238 240 243 245 247 249 252 254 255
340 337 331 330 326 326 309 312 306 184 160 161 164 164 173 178 176 178 187 189 200 185 190 196 192 192 190 214 220 226 229 233 236 238 241 239 239 245 242 244 247 249 252 255 258
344 340 332 318 308 313 315 325 129 151 152 158 155 158 164 181 185 177 185 187 192 198 196 202 205 179 215 198 204 220 228 231 235 238 242 246 244 249 250 248 248 252 256 256 258
359 349 348 341 311 309 334 105 137 147 150 154 155 158 161 170 175 178 178 185 187 196 205 206 207 207 206 207 196 209 214 220 227 236 241 244 249 236 249 251 251 251 255 258 259
20 21 17 13 26 71 110 125 132 139 152 157 159 163 151 171 171 180 176 185 187 194 196 201 200 203 199 212 210 206 210 221 226 232 237 238 244 234 240 249 249 248 249 253 259
35 43 52 66 88 101 112 123 109 140 146 148 155 159 154 160 176 182 187 184 192 197 195 194 204 197 203 208 211 221 227 235 237 233 235 232 238 238 227 237 243 245 250 254 257
37 50 57 84 105 106 61 107 134 138 146 150 147 152 155 164 170 180 188 189 193 196 193 201 205 214 202 207 213 220 223 224 228 226 230 220 225 232 218 225 235 242 248 255 259
35 59 71 96 118 81 92 127 131 125 145 154 155 163 168 176 176 176 178 188 189 200 187 192 198 212 201 207 212 215 220 222 224 223 222 216 225 231 235 233 239 248 254 261 266
40 56 70 96 102 64 82 119 131 132 142 146 149 149 161 161 169 174 178 176 186 198 188 199 203 204 210 210 209 211 213 214 214 213 216 218 231 242 249 255 257 261 267 268 268
34 70 65 63 59 42 58 127 119 139 136 137 146 157 159 166 163 175 170 190 192 173 189 202 202 204 204 200 202 200 201 207 210 215 221 224 238 245 251 259 263 265 266 267 272
44 48 65 69 63 78 89 110 147 140 138 148 151 163 164 171 170 178 180 184 177 199 203 197 191 192 196 187 193 193 200 212 218 223 231 241 248 252 255 261 263 270 273 281 285
41 46 61 67 66 71 81 105 148 142 143 147 153 166 173 175 180 188 181 182 194 184 191 191 187 186 184 188 190 192 199 212 222 232 245 254 259 265 265 271 274 273 272 281 291
27 43 52 65 89 74 80 109 124 136 148 170 181 171 177 190 201 174 174 182 182 190 190 189 190 189 184 186 193 202 209 223 235 247 256 261 266 261 270 272 272 278 294 297 310
19 32 34 53 89 101 83 97 108 133 148 181 205 216 200 181 164 166 186 186 189 191 193 192 192 192 190 193 202 215 227 236 249 257 261 267 259 269 274 285 284 286 289 303 315
304 23 357 358 48 78 75 81 91 92 93 112 168 190 207 199 173 180 182 184 184 191 198 197 198 195 195 201 215 229 239 254 261 261 253 259 261 260 274 281 279 277 287 310 315
307 229 244 275 287 280 199 241 212 355 59 80 101 165 191 193 186 176 188 198 198 203 204 206 204 204 207 218 232 248 257 260 256 257 252 248 251 257 274 276 294 280 298 328 324